Location: Newark
(37.8444°N, 127.0614°E)
Time: 18:32:17
(UTC+00:00)

XW-2F - Pass Details

Date: 26 January 2020
Orbit: 501 x 524 km, 97.5° (Epoch: 17 February)

Event Time Altitude Azimuth Distance (km) Brightness Sun altitude
Rises 21:38:15 0° 11° (N) 2,605 ? -12.5°
Reaches altitude 10° 21:40:20 10° 11° (N) 1,716 ? -12.1°
Maximum altitude 21:44:02 85° 284° (WNW) 509 ? -11.4°
Drops below altitude 10° 21:47:42 10° 195° (SSW) 1,703 ? -10.7°
Sets 21:49:46 0° 194° (SSW) 2,583 ? -10.3°
